| time (UTC) | temp F | wind direction | speed MPH | gust MPH | rain 1hr in | rain 24hr in | rain mn in | humidity % | barometer mb |
| 20260506081503 | 45 | 176 | 2.0 | 5.0 | 0.00 | 0.02 | 0.00 | 68 | 1015.0 |
| 20260506073024 | 44 | 202 | 4.0 | 9.0 | 0.00 | 0.02 | 0.00 | 74 | 1015.1 |
| 20260506071503 | 42 | 201 | 3.0 | 7.0 | 0.00 | 0.02 | 0.00 | 82 | 1015.1 |
| 20260506061503 | 42 | 233 | 1.0 | 7.0 | 0.00 | 0.02 | 0.00 | 86 | 1015.1 |
| 20260506044524 | 33 | 219 | 7.0 | 8.0 | 0.00 | 0.03 | 0.00 | 93 | 1015.5 |
| 20260506043024 | 33 | 222 | 6.0 | 7.0 | 0.00 | 0.03 | 0.00 | 93 | 1015.5 |
| 20260506041503 | 33 | 222 | 3.0 | 4.0 | 0.00 | 0.03 | 0.00 | 93 | 1015.5 |
| 20260506040003 | 33 | 219 | 2.0 | 7.0 | 0.00 | 0.03 | 0.00 | 93 | 1015.6 |
| 20260506034503 | 33 | 219 | 5.0 | 7.0 | 0.00 | 0.03 | 0.00 | 92 | 1015.7 |
| 20260506033024 | 34 | 216 | 7.0 | 8.0 | 0.00 | 0.03 | 0.00 | 93 | 1015.7 |
| 20260506031503 | 34 | 214 | 8.0 | 9.0 | 0.00 | 0.03 | 0.00 | 94 | 1015.7 |
| 20260506030003 | 33 | 215 | 7.0 | 9.0 | 0.00 | 0.03 | 0.00 | 95 | 1015.7 |
| 20260506024503 | 32 | 210 | 4.0 | 8.0 | 0.00 | 0.03 | 0.00 | 94 | 1015.7 |
| 20260506023003 | 32 | 200 | 3.0 | 8.0 | 0.00 | 0.03 | 0.00 | 94 | 1015.9 |
| 20260506021503 | 33 | 193 | 8.0 | 9.0 | 0.00 | 0.03 | 0.00 | 94 | 1015.9 |
| 20260506020005 | 32 | 194 | 5.0 | 7.0 | 0.00 | 0.03 | 0.00 | 94 | 1015.9 |
| 20260506014504 | 33 | 194 | 3.0 | 5.0 | 0.00 | 0.03 | 0.00 | 94 | 1016.1 |
| 20260506013004 | 33 | 165 | 4.0 | 5.0 | 0.00 | 0.03 | 0.00 | 94 | 1016.0 |
| 20260506011525 | 33 | 156 | 4.0 | 7.0 | 0.00 | 0.03 | 0.00 | 94 | 1016.2 |
| 20260506010005 | 33 | 160 | 5.0 | 8.0 | 0.00 | 0.03 | 0.00 | 94 | 1016.2 |
| 20260506004505 | 34 | 163 | 7.0 | 9.0 | 0.00 | 0.03 | 0.00 | 94 | 1016.2 |
| 20260506003025 | 33 | 153 | 8.0 | 9.0 | 0.00 | 0.03 | 0.00 | 94 | 1016.1 |
| 20260506001525 | 33 | 140 | 6.0 | 8.0 | 0.00 | 0.03 | 0.00 | 94 | 1016.4 |
| 20260506000004 | 32 | 145 | 2.0 | 7.0 | 0.00 | 0.03 | 0.00 | 93 | 1016.3 |
| 20260505234504 | 34 | 0 | 0.0 | 0.0 | 0.00 | 0.03 | 0.00 | 91 | 1016.4 |
| 20260505233004 | 35 | 240 | 1.0 | 3.0 | 0.00 | 0.03 | 0.00 | 92 | 1016.4 |
| 20260505231504 | 35 | 240 | 1.0 | 2.0 | 0.00 | 0.04 | 0.00 | 92 | 1016.5 |
| 20260505230005 | 36 | 0 | 0.0 | 0.0 | 0.00 | 0.05 | 0.00 | 92 | 1016.5 |
| 20260505224504 | 37 | 292 | 0.0 | 2.0 | 0.00 | 0.05 | 0.05 | 92 | 1016.8 |
| 20260505223004 | 38 | 263 | 2.0 | 8.0 | 0.00 | 0.06 | 0.05 | 93 | 1016.8 |
| 20260505221525 | 37 | 239 | 1.0 | 3.0 | 0.00 | 0.06 | 0.05 | 93 | 1016.8 |
| 20260505220004 | 37 | 239 | 1.0 | 3.0 | 0.00 | 0.06 | 0.05 | 91 | 1016.8 |
| 20260505214525 | 38 | 239 | 2.0 | 3.0 | 0.01 | 0.06 | 0.05 | 91 | 1016.8 |
| 20260505213004 | 38 | 234 | 2.0 | 3.0 | 0.01 | 0.06 | 0.05 | 91 | 1016.8 |
| 20260505211504 | 38 | 229 | 2.0 | 5.0 | 0.01 | 0.09 | 0.05 | 91 | 1016.6 |
| 20260505210004 | 39 | 299 | 3.0 | 10.0 | 0.01 | 0.10 | 0.05 | 89 | 1016.8 |
| 20260505204504 | 39 | 307 | 9.0 | 14.0 | 0.00 | 0.09 | 0.04 | 87 | 1017.0 |
| 20260505203025 | 39 | 299 | 0.0 | 4.0 | 0.00 | 0.11 | 0.04 | 89 | 1017.0 |
| 20260505201504 | 40 | 0 | 0.0 | 0.0 | 0.00 | 0.12 | 0.04 | 88 | 1017.1 |
| 20260505200004 | 40 | 32 | 0.0 | 2.0 | 0.00 | 0.12 | 0.04 | 85 | 1017.0 |
| 20260505194504 | 41 | 31 | 2.0 | 5.0 | 0.00 | 0.12 | 0.04 | 81 | 1016.9 |
| 20260505193004 | 42 | 36 | 5.0 | 8.0 | 0.00 | 0.12 | 0.04 | 81 | 1016.8 |
| 20260505191504 | 42 | 23 | 4.0 | 10.0 | 0.00 | 0.13 | 0.04 | 79 | 1016.6 |
| 20260505190025 | 42 | 12 | 3.0 | 5.0 | 0.00 | 0.15 | 0.04 | 78 | 1016.7 |
| 20260505184504 | 43 | 14 | 4.0 | 5.0 | 0.00 | 0.15 | 0.04 | 78 | 1016.8 |
| 20260505183025 | 43 | 12 | 3.0 | 5.0 | 0.00 | 0.15 | 0.04 | 77 | 1016.7 |
| 20260505181504 | 43 | 359 | 3.0 | 7.0 | 0.00 | 0.15 | 0.04 | 77 | 1016.8 |
| 20260505180025 | 43 | 349 | 4.0 | 7.0 | 0.00 | 0.15 | 0.04 | 75 | 1016.7 |
| 20260505174504 | 43 | 351 | 4.0 | 9.0 | 0.00 | 0.15 | 0.04 | 73 | 1016.7 |
| 20260505173004 | 44 | 21 | 5.0 | 10.0 | 0.00 | 0.15 | 0.04 | 73 | 1016.7 |
| 20260505171504 | 44 | 22 | 11.0 | 18.0 | 0.00 | 0.15 | 0.04 | 73 | 1016.9 |
| 20260505170004 | 45 | 13 | 6.0 | 12.0 | 0.00 | 0.15 | 0.04 | 68 | 1016.8 |
| 20260505164504 | 46 | 359 | 4.0 | 11.0 | 0.00 | 0.15 | 0.04 | 63 | 1016.7 |
| 20260505163004 | 47 | 4 | 7.0 | 12.0 | 0.00 | 0.15 | 0.04 | 64 | 1016.7 |
| 20260505161525 | 47 | 13 | 6.0 | 11.0 | 0.00 | 0.15 | 0.04 | 67 | 1016.7 |
| 20260505153004 | 47 | 4 | 7.0 | 13.0 | 0.00 | 0.15 | 0.04 | 59 | 1016.6 |
| 20260505151504 | 47 | 360 | 9.0 | 14.0 | 0.00 | 0.15 | 0.04 | 64 | 1016.8 |
| 20260505124504 | 46 | 356 | 12.0 | 18.0 | 0.00 | 0.15 | 0.04 | 71 | 1016.4 |
| 20260505123004 | 45 | 358 | 13.0 | 21.0 | 0.00 | 0.15 | 0.04 | 74 | 1016.4 |
| 20260505121504 | 44 | 354 | 12.0 | 20.0 | 0.00 | 0.15 | 0.04 | 80 | 1016.2 |
| 20260505120005 | 44 | 357 | 13.0 | 19.0 | 0.00 | 0.15 | 0.04 | 75 | 1016.3 |
| 20260505114504 | 44 | 354 | 13.0 | 20.0 | 0.00 | 0.15 | 0.04 | 75 | 1016.2 |
| 20260505113004 | 44 | 351 | 13.0 | 18.0 | 0.00 | 0.15 | 0.04 | 77 | 1016.1 |
| 20260505111504 | 46 | 355 | 14.0 | 19.0 | 0.00 | 0.15 | 0.04 | 77 | 1016.1 |
| 20260505101504 | 45 | 357 | 15.0 | 22.0 | 0.00 | 0.15 | 0.04 | 77 | 1015.9 |
| 20260505100025 | 44 | 354 | 13.0 | 19.0 | 0.01 | 0.15 | 0.04 | 83 | 1016.0 |
| 20260505094504 | 42 | 355 | 12.0 | 18.0 | 0.01 | 0.15 | 0.04 | 82 | 1015.9 |
| 20260505093025 | 41 | 349 | 2.0 | 9.0 | 0.01 | 0.15 | 0.04 | 91 | 1015.8 |
| 20260505091504 | 40 | 340 | 7.0 | 19.0 | 0.01 | 0.15 | 0.04 | 89 | 1015.8 |
| 20260505090004 | 41 | 349 | 15.0 | 22.0 | 0.00 | 0.14 | 0.03 | 85 | 1015.5 |
| 20260505084504 | 42 | 356 | 13.0 | 19.0 | 0.00 | 0.14 | 0.03 | 85 | 1015.3 |
| 20260505083004 | 42 | 357 | 13.0 | 19.0 | 0.00 | 0.14 | 0.03 | 84 | 1015.3 |